Location: Kerb�bon
(47.7970°N, 3.3487°W)
Time: 12:22:46
(UTC+00:00)

Cosmos 1937 Rocket - Pass Details

Date: 12 May 2021
Orbit: 746 x 781 km, 74.0° (Epoch: 18 June)

Event Time Altitude Azimuth Distance (km) Brightness Sun altitude
Exits shadow 23:11:20 37° 224° (SW) 1,159 4.1 -22.5°
Maximum altitude 23:13:19 68° 294° (WNW) 812 3.7 -22.6°
Drops below altitude 10° 23:18:30 10° 18° (NNE) 2,290 6.8 -22.8°
Sets 23:20:54 0° 21° (NNE) 3,224 7.6 -22.9°
